H1 CPF 2 NER 2025 10 9 9 282 01 glonass137 H2 1705501 9137 42939 2025 10 9 0 0 0 2025 10 12 23 45 0 900 1 1 0 0 0 1 H9 10 0 60957 0.00000 0 -15662937.697 8227596.762 -18372948.044 10 0 60957 900.00000 0 -17802860.440 8280190.022 -16284962.981 10 0 60957 1800.00000 0 -19657244.386 8469899.329 -13880694.359 10 0 60957 2700.00000 0 -21182902.842 8753515.322 -11206894.447 10 0 60957 3600.00000 0 -22347737.200 9081460.363 -8315527.759 10 0 60957 4500.00000 0 -23131904.681 9400073.835 -5262759.343 10 0 60957 5400.00000 0 -23528487.690 9654079.037 -2107862.769 10 0 60957 6300.00000 0 -23543637.943 9789127.018 1087930.814 10 0 60957 7200.00000 0 -23196190.535 9754309.570 4262620.033 10 0 60957 8100.00000 0 -22516765.233 9504534.996 7354633.900 10 0 60957 9000.00000 0 -21546393.657 9002666.181 10304022.393 10 0 60957 9900.00000 0 -20334730.721 8221330.571 13053614.001 10 0 60957 10800.00000 0 -18937925.854 7144325.537 15550118.112 10 0 60957 11700.00000 0 -17416243.449 5767559.523 17745151.374 10 0 60957 12600.00000 0 -15831532.165 4099488.874 19596168.734 10 0 60957 13500.00000 0 -14244648.681 2161031.059 21067281.901 10 0 60957 14400.00000 0 -12712943.062 -15043.204 22129950.141 10 0 60957 15300.00000 0 -11287910.175 -2385214.992 22763530.696 10 0 60957 16200.00000 0 -10013104.449 -4896774.935 22955678.733 10 0 60957 17100.00000 0 -8922404.347 -7489770.639 22702589.331 10 0 60957 18000.00000 0 -8038698.414 -10099264.542 22009076.777 10 0 60957 18900.00000 0 -7373047.317 -12657810.081 20888489.274 10 0 60957 19800.00000 0 -6924356.670 -15098044.798 19362459.997 10 0 60957 20700.00000 0 -6679574.303 -17355293.764 17460498.402 10 0 60957 21600.00000 0 -6614403.754 -19370075.916 15219428.579 10 0 60957 22500.00000 0 -6694504.241 -21090409.397 12682684.416 10 0 60957 23400.00000 0 -6877126.797 -22473819.785 9899474.218 10 0 60957 24300.00000 0 -7113117.693 -23488967.241 6923830.168 10 0 60957 25200.00000 0 -7349204.497 -24116824.065 3813560.584 10 0 60957 26100.00000 0 -7530467.761 -24351352.739 629125.212 10 0 60957 27000.00000 0 -7602893.104 -24199655.614 -2567544.336 10 0 60957 27900.00000 0 -7515894.614 -23681589.463 -5714255.490 10 0 60957 28800.00000 0 -7224701.493 -22828861.115 -8749772.551 10 0 60957 29700.00000 0 -6692505.454 -21683642.344 -11615016.732 10 0 60957 30600.00000 0 -5892276.492 -20296762.723 -14254224.085 10 0 60957 31500.00000 0 -4808168.736 -18725557.118 -16616037.809 10 0 60957 32400.00000 0 -3436455.538 -17031459.045 -18654512.967 10 0 60957 33300.00000 0 -1785953.054 -15277441.814 -20330013.651 10 0 60957 34200.00000 0 122086.643 -13525415.612 -21609984.909 10 0 60957 35100.00000 0 2254609.420 -11833690.193 -22469584.543 10 0 60957 36000.00000 0 4567894.114 -10254609.689 -22892162.835 10 0 60957 36900.00000 0 7009141.879 -8832458.516 -22869581.318 10 0 60957 37800.00000 0 9518453.956 -7601725.495 -22402364.974 10 0 60957 38700.00000 0 12031115.756 -6585798.014 -21499685.438 10 0 60957 39600.00000 0 14480092.415 -5796139.771 -20179176.040 10 0 60957 40500.00000 0 16798632.190 -5231985.151 -18466582.660 10 0 60957 41400.00000 0 18922869.635 -4880561.557 -16395257.513 10 0 60957 42300.00000 0 20794320.533 -4717828.805 -14005505.889 10 0 60957 43200.00000 0 22362165.056 -4709703.019 -11343798.724 10 0 60957 44100.00000 0 23585224.586 -4813712.129 -8461866.402 10 0 60957 45000.00000 0 24433550.306 -4981012.032 -5415691.562 10 0 60957 45900.00000 0 24889558.042 -5158677.368 -2264420.604 10 0 60957 46800.00000 0 24948662.748 -5292169.453 930784.815 10 0 60957 47700.00000 0 24619387.015 -5327876.537 4107933.816 10 0 60957 48600.00000 0 23922939.966 -5215618.705 7205406.744 10 0 60957 49500.00000 0 22892284.996 -4911011.339 10163146.762 10 0 60957 50400.00000 0 21570736.107 -4377587.171 12923819.536 10 0 60957 51300.00000 0 20010142.085 -3588587.194 15433918.866 10 0 60957 52200.00000 0 18268734.757 -2528344.689 17644797.308 10 0 60957 53100.00000 0 16408731.266 -1193203.646 19513602.390 10 0 60957 54000.00000 0 14493790.251 408067.698 21004101.066 10 0 60957 54900.00000 0 12586427.570 2254386.572 22087377.170 10 0 60957 55800.00000 0 10745498.650 4312985.296 22742389.062 10 0 60957 56700.00000 0 9023851.559 6540536.104 22956377.198 10 0 60957 57600.00000 0 7466247.735 8884725.938 22725114.027 10 0 60957 58500.00000 0 6107636.214 11286217.453 22052991.336 10 0 60957 59400.00000 0 4971852.583 13680916.324 20952943.022 10 0 60957 60300.00000 0 4070796.409 16002452.190 19446204.066 10 0 60957 61200.00000 0 3404121.146 18184771.232 17561909.503 10 0 60957 62100.00000 0 2959449.281 20164733.482 15336540.032 10 0 60957 63000.00000 0 2713103.601 21884607.088 12813223.871 10 0 60957 63900.00000 0 2631323.825 23294355.670 10040907.401 10 0 60957 64800.00000 0 2671917.312 24353622.931 7073409.844 10 0 60957 65700.00000 0 2786274.026 25033330.892 3968379.797 10 0 60957 66600.00000 0 2921660.269 25316824.224 786173.801 10 0 60957 67500.00000 0 3023693.539 25200511.762 -2411321.049 10 0 60957 68400.00000 0 3038892.811 24693977.541 -5561897.022 10 0 60957 69300.00000 0 2917195.097 23819556.373 -8604243.760 10 0 60957 70200.00000 0 2614330.347 22611391.459 -11479149.729 10 0 60957 71100.00000 0 2093952.687 21114013.770 -14130662.739 10 0 60957 72000.00000 0 1329436.345 19380503.213 -16507185.966 10 0 60957 72900.00000 0 305258.911 17470309.294 -18562487.458 10 0 60957 73800.00000 0 -982087.810 15446823.366 -20256603.023 10 0 60957 74700.00000 0 -2523698.872 13374804.872 -21556614.662 10 0 60957 75600.00000 0 -4298387.001 11317769.868 -22437289.573 10 0 60957 76500.00000 0 -6273338.484 9335451.316 -22881567.556 10 0 60957 77400.00000 0 -8405267.287 7481437.337 -22880887.819 10 0 60957 78300.00000 0 -10642019.624 5801085.671 -22435349.413 10 0 60957 79200.00000 0 -12924562.344 4329800.695 -21553702.689 10 0 60957 80100.00000 0 -15189272.412 3091743.910 -20253172.500 10 0 60957 81000.00000 0 -17370432.232 2099030.365 -18559116.963 10 0 60957 81900.00000 0 -19402827.002 1351443.051 -16504528.735 10 0 60957 82800.00000 0 -21224335.988 836675.498 -14129388.714 10 0 60957 83700.00000 0 -22778409.902 531090.645 -11479884.898 10 0 60957 84600.00000 0 -24016331.314 400962.418 -8607511.658 10 0 60957 85500.00000 0 -24899164.063 404146.262 -5568067.111 10 0 60958 0.00000 0 -25399310.673 492106.901 -2420568.446 10 0 60958 900.00000 0 -25501613.378 612216.786 773895.242 10 0 60958 1800.00000 0 -25203952.716 710227.206 3953345.970 10 0 60958 2700.00000 0 -24517320.184 732807.314 7056118.261 10 0 60958 3600.00000 0 -23465361.723 630043.279 10022051.422 10 0 60958 4500.00000 0 -22083412.022 357791.843 12793651.332 10 0 60958 5400.00000 0 -20417060.345 -120211.231 15317199.237 10 0 60958 6300.00000 0 -18520307.962 -830576.898 17543786.538 10 0 60958 7200.00000 0 -16453394.112 -1788897.765 19430256.089 10 0 60958 8100.00000 0 -14280380.856 -2998850.120 20940032.543 10 0 60958 9000.00000 0 -12066596.911 -4451801.485 22043826.400 10 0 60958 9900.00000 0 -9876046.193 -6126941.184 22720198.812 10 0 60958 10800.00000 0 -7768887.963 -7991929.787 22955976.759 10 0 60958 11700.00000 0 -5799092.440 -10004041.871 22746510.846 10 0 60958 12600.00000 0 -4012368.449 -12111756.096 22095770.717 10 0 60958 13500.00000 0 -2444448.435 -14256728.045 21016275.893 10 0 60958 14400.00000 0 -1119801.526 -16376065.264 19528862.704 10 0 60958 15300.00000 0 -50827.723 -18404811.072 17662290.938 10 0 60958 16200.00000 0 762433.556 -20278534.658 15452696.701 10 0 60958 17100.00000 0 1332068.695 -21935920.094 12942901.021 10 0 60958 18000.00000 0 1681538.904 -23321246.310 10181586.528 10 0 60958 18900.00000 0 1844444.837 -24386654.094 7222357.380 10 0 60958 19800.00000 0 1862859.129 -25094104.728 4122700.147 10 0 60958 20700.00000 0 1785297.592 -25416947.257 942865.685 10 0 60958 21600.00000 0 1664415.442 -25341027.574 -2255306.057 10 0 60958 22500.00000 0 1554526.856 -24865291.915 -5409594.902 10 0 60958 23400.00000 0 1509053.955 -24001858.313 -8458618.638 10 0 60958 24300.00000 0 1578014.543 -22775552.522 -11343035.853 10 0 60958 25200.00000 0 1805656.302 -21222927.664 -14006708.993 10 0 60958 26100.00000 0 2228339.020 -19390808.548 -16397804.073 10 0 60958 27000.00000 0 2872755.795 -17334422.015 -18469804.887 10 0 60958 27900.00000 0 3754569.605 -15115192.065 -20182421.526 10 0 60958 28800.00000 0 4877523.926 -12798292.564 -21502375.269 10 0 60958 29700.00000 0 6233065.765 -10450060.321 -22404044.697 10 0 60958 30600.00000 0 7800497.792 -8135376.897 -22869960.754 10 0 60958 31500.00000 0 9547653.746 -5915128.463 -22891141.567 10 0 60958 32400.00000 0 11432069.290 -3843849.413 -22467261.099 10 0 60958 33300.00000 0 13402599.641 -1967647.321 -21606648.894 10 0 60958 34200.00000 0 15401416.537 -322494.833 -20326121.429 10 0 60958 35100.00000 0 17366301.252 1067041.566 -18650648.770 10 0 60958 36000.00000 0 19233137.994 2188584.401 -16612863.328 10 0 60958 36900.00000 0 20938503.600 3042208.703 -14252420.491 10 0 60958 37800.00000 0 22422245.435 3640176.988 -11615223.732 10 0 60958 38700.00000 0 23629939.883 4006158.689 -8752529.348 10 0 60958 39600.00000 0 24515128.778 4173968.597 -5719948.407 10 0 60958 40500.00000 0 25041240.443 4185878.983 -2576365.405 10 0 60958 41400.00000 0 25183115.228 4090577.886 617205.236 10 0 60958 42300.00000 0 24928072.015 3940860.738 3798802.421 10 0 60958 43200.00000 0 24276471.359 3791153.602 6906718.362 10 0 60958 44100.00000 0 23241752.101 3694973.110 9880691.988 10 0 60958 45000.00000 0 21849940.132 3702430.708 12663072.732 10 0 60958 45900.00000 0 20138650.095 3857886.688 15199932.403 10 0 60958 46800.00000 0 18155621.683 4197853.048 17442104.092 10 0 60958 47700.00000 0 15956851.476 4749233.668 19346128.518 10 0 60958 48600.00000 0 13604397.767 5527976.072 20875090.236 10 0 60958 49500.00000 0 11163949.149 6538191.895 21999328.258 10 0 60958 50400.00000 0 8702257.178 7771783.646 22697007.987 10 0 60958 51300.00000 0 6284538.845 9208594.414 22954543.975 10 0 60958 52200.00000 0 3971955.678 10817075.525 22766865.581 10 0 60958 53100.00000 0 1819273.132 12555445.707 22137520.427 10 0 60958 54000.00000 0 -127203.510 14373294.974 21078613.296 10 0 60958 54900.00000 0 -1831331.816 16213567.808 19610581.023 10 0 60958 55800.00000 0 -3268403.300 18014844.332 17761806.847 10 0 60958 56700.00000 0 -4425930.531 19713825.322 15568080.597 10 0 60958 57600.00000 0 -5303917.800 21247918.045 13071914.076 10 0 60958 58500.00000 0 -5914604.341 22557815.087 10321723.864 10 0 60958 59400.00000 0 -6281691.151 23589958.072 7370896.555 10 0 60958 60300.00000 0 -6439084.282 24298782.525 4276754.033 10 0 60958 61200.00000 0 -6429207.940 24648648.783 1099438.701 10 0 60958 62100.00000 0 -6300959.189 24615376.740 -2099259.446 10 0 60958 63000.00000 0 -6107391.470 24187318.712 -5257110.609 10 0 60958 63900.00000 0 -5903225.953 23365924.091 -8312663.489 10 0 60958 64800.00000 0 -5742297.241 22165771.176 -11206449.435 10 0 60958 65700.00000 0 -5675042.833 20614063.992 -13882148.021 10 0 60958 66600.00000 0 -5746143.939 18749614.817 -16287690.399 10 0 60958 67500.00000 0 -5992418.693 16621354.920 -18376278.192 10 0 60958 68400.00000 0 -6441058.030 14286435.883 -20107297.652 10 0 60958 69300.00000 0 -7108279.703 11808001.279 -21447111.011 10 0 60958 70200.00000 0 -7998458.045 9252722.062 -22369709.705 10 0 60958 71100.00000 0 -9103766.755 6688198.787 -22857217.069 10 0 60958 72000.00000 0 -10404350.246 4180339.062 -22900231.143 10 0 60958 72900.00000 0 -11869016.620 1790819.298 -22498001.499 10 0 60958 73800.00000 0 -13456423.468 -425264.020 -21658437.213 10 0 60958 74700.00000 0 -15116706.865 -2421456.522 -20397946.334 10 0 60958 75600.00000 0 -16793485.384 -4161636.883 -18741110.406 10 0 60958 76500.00000 0 -18426155.242 -5621267.423 -16720200.716 10 0 60958 77400.00000 0 -19952380.468 -6788153.856 -14374545.873 10 0 60958 78300.00000 0 -21310673.807 -7662684.293 -11749763.213 10 0 60958 79200.00000 0 -22442960.284 -8257539.389 -8896869.065 10 0 60958 80100.00000 0 -23297016.041 -8596887.665 -5871285.309 10 0 60958 81000.00000 0 -23828680.280 -8715101.586 -2731761.667 10 0 60958 81900.00000 0 -24003747.706 -8655049.973 460765.219 10 0 60958 82800.00000 0 -23799462.215 -8466039.988 3644353.586 10 0 60958 83700.00000 0 -23205549.380 -8201496.509 6757256.209 10 0 60958 84600.00000 0 -22224744.567 -7916477.511 9739114.633 10 0 60958 85500.00000 0 -20872794.636 -7665130.758 12532124.889 10 0 60959 0.00000 0 -19177933.293 -7498199.317 15082152.165 10 0 60959 900.00000 0 -17179850.868 -7460681.067 17339774.620 10 0 60959 1800.00000 0 -14928203.519 -7589741.004 19261233.303 10 0 60959 2700.00000 0 -12480720.408 -7912963.881 20809275.073 10 0 60959 3600.00000 0 -9900989.076 -8447021.062 21953869.481 10 0 60959 4500.00000 0 -7256009.301 -9196807.759 22672787.792 10 0 60959 5400.00000 0 -4613616.078 -10155087.479 22952033.286 10 0 60959 6300.00000 0 -2039877.499 -11302659.458 22786114.809 10 0 60959 7200.00000 0 403425.664 -12609043.196 22178158.268 10 0 60959 8100.00000 0 2661135.204 -14033652.817 21139853.633 10 0 60959 9000.00000 0 4686769.623 -15527413.517 19691237.809 10 0 60959 9900.00000 0 6444212.551 -17034753.897 17860316.702 10 0 60959 10800.00000 0 7908965.876 -18495891.972 15682532.747 10 0 60959 11700.00000 0 9068915.775 -19849320.090 13200087.074 10 0 60959 12600.00000 0 9924579.963 -21034385.048 10461128.432 10 0 60959 13500.00000 0 10488826.153 -21993855.320 7518823.764 10 0 60959 14400.00000 0 10786073.843 -22676367.221 4430327.902 10 0 60959 15300.00000 0 10851013.318 -23038646.336 1255672.219 10 0 60959 16200.00000 0 10726896.448 -23047409.774 -1943405.990 10 0 60959 17100.00000 0 10463472.050 -22680867.764 -5104670.154 10 0 60959 18000.00000 0 10114654.006 -21929760.069 -8166602.786 10 0 60959 18900.00000 0 9736021.836 -20797882.342 -11069610.911 10 0 60959 19800.00000 0 9382260.653 -19302079.123 -13757194.110 10 0 60959 20700.00000 0 9104650.023 -17471702.951 -16177051.442 10 0 60959 21600.00000 0 8948709.138 -15347561.627 -18282105.003 10 0 60959 22500.00000 0 8952098.900 -12980397.439 -20031419.631 10 0 60959 23400.00000 0 9142870.449 -10428961.946 -21391000.649 10 0 60959 24300.00000 0 9538134.693 -7757766.785 -22334454.158 10 0 60959 25200.00000 0 10143209.428 -5034604.420 -22843497.301 10 0 60959 26100.00000 0 10951280.217 -2327942.229 -22908309.048 10 0 60959 27000.00000 0 11943589.400 295701.745 -22527715.199 10 0 60959 27900.00000 0 13090145.297 2774292.544 -21709204.587 10 0 60959 28800.00000 0 14350921.715 5052616.771 -20468776.685 10 0 60959 29700.00000 0 15677497.254 7084329.424 -18830624.022 10 0 60959 30600.00000 0 17015065.480 8833625.139 -16826655.892 10 0 60959 31500.00000 0 18304731.431 10276465.627 -14495872.897 10 0 60959 32400.00000 0 19485997.941 11401313.810 -11883604.633 10 0 60959 33300.00000 0 20499337.312 12209345.782 -9040625.468 10 0 60959 34200.00000 0 21288740.243 12714133.588 -6022165.741 10 0 60959 35100.00000 0 21804134.940 12940813.948 -2886837.733 10 0 60959 36000.00000 0 22003574.757 12924779.532 304502.614 10 0 60959 36900.00000 0 21855102.468 12709949.311 3489935.955 10 0 60959 37800.00000 0 21338212.899 12346692.035 6607678.769 10 0 60959 38700.00000 0 20444852.463 11889491.213 9597278.323 10 0 60959 39600.00000 0 19179913.602 11394450.654 12400780.243 10 0 60959 40500.00000 0 17561203.195 10916745.991 14963846.354 10 0 60959 41400.00000 0 15618885.895 10508129.645 17236801.576 10 0 60959 42300.00000 0 13394425.123 10214594.213 19175590.143 10 0 60959 43200.00000 0 10939065.177 10074292.394 20742623.331 10 0 60959 44100.00000 0 8311916.698 10115800.779 21907503.046 10 0 60959 45000.00000 0 5577724.066 10356800.361 22647607.911 10 0 60959 45900.00000 0 2804406.188 10803229.336 22948531.068 10 0 60959 46800.00000 0 60471.419 11448944.122 22804361.562 10 0 60959 47700.00000 0 -2587587.476 12275903.532 22217803.856 10 0 60959 48600.00000 0 -5077811.498 13254869.303 21200132.890 10 0 60959 49500.00000 0 -7355103.403 14346594.780 19770984.935 10 0 60959 50400.00000 0 -9373269.700 15503453.124 17957987.393 10 0 60959 51300.00000 0 -11096692.473 16671437.911 15796233.716 10 0 60959 52200.00000 0 -12501561.888 17792453.146 13327612.410 10 0 60959 53100.00000 0 -13576618.295 18806797.144 10600002.185 10 0 60959 54000.00000 0 -14323373.107 19655736.143 7666347.930 10 0 60959 54900.00000 0 -14755799.391 20284059.131 4583634.890 10 0 60959 55800.00000 0 -14899505.487 20642505.787 1411780.790 10 0 60959 56700.00000 0 -14790426.735 20689964.145 -1787532.442 10 0 60959 57600.00000 0 -14473090.976 20395343.984 -4952064.152 10 0 60959 58500.00000 0 -13998531.896 19739045.648 -8020233.342 10 0 60959 59400.00000 0 -13421939.253 18713960.837 -10932325.342 10 0 60959 60300.00000 0 -12800146.381 17325961.851 -13631662.257 10 0 60959 61200.00000 0 -12189062.360 15593857.533 -16065713.441 10 0 60959 62100.00000 0 -11641158.428 13548816.736 -18187123.640 10 0 60959 63000.00000 0 -11203115.865 11233282.817 -19954638.249 10 0 60959 63900.00000 0 -10913735.451 8699424.167 -21333907.407 10 0 60959 64800.00000 0 -10802197.279 6007185.337 -22298153.334 10 0 60959 65700.00000 0 -10886744.577 3222019.921 -22828688.172 10 0 60959 66600.00000 0 -11173847.070 412399.659 -22915272.703 10 0 60959 67500.00000 0 -11657878.949 -2352796.726 -22556309.502 10 0 60959 68400.00000 0 -12321324.725 -5006906.639 -21758867.350 10 0 60959 69300.00000 0 -13135503.905 -7488010.070 -20538536.954 10 0 60959 70200.00000 0 -14061783.609 -9741255.080 -18919121.230 10 0 60959 71100.00000 0 -15053227.726 -11720886.602 -16932166.517 10 0 60959 72000.00000 0 -16056612.885 -13391895.298 -14616344.097 10 0 60959 72900.00000 0 -17014726.120 -14731219.205 -12016694.214 10 0 60959 73800.00000 0 -17868847.339 -15728449.671 -9183747.422 10 0 60959 74700.00000 0 -18561311.894 -16386013.755 -6172540.469 10 0 60959 75600.00000 0 -19038045.273 -16718827.208 -3041545.981 10 0 60959 76500.00000 0 -19250963.108 -16753434.301 148463.165 10 0 60959 77400.00000 0 -19160135.394 -16526672.115 3335592.529 10 0 60959 78300.00000 0 -18735623.770 -16083916.820 6458024.922 10 0 60959 79200.00000 0 -17958914.488 -15476986.736 9455216.063 10 0 60959 80100.00000 0 -16823886.668 -14761791.221 12269063.969 10 0 60959 81000.00000 0 -15337274.900 -13995824.763 14845029.693 10 0 60959 81900.00000 0 -13518606.341 -13235611.892 17133188.105 10 0 60959 82800.00000 0 -11399614.280 -12534210.275 19089188.951 10 0 60959 83700.00000 0 -9023151.816 -11938876.704 20675110.252 10 0 60959 84600.00000 0 -6441649.833 -11488993.654 21860188.285 10 0 60959 85500.00000 0 -3715182.226 -11214343.118 22621410.682 10 0 60960 0.00000 0 -909217.628 -11133799.923 22943961.707 10 0 60960 900.00000 0 1907851.997 -11254499.273 22821511.543 10 0 60960 1800.00000 0 4667301.101 -11571513.724 22256343.664 10 0 60960 2700.00000 0 7302677.575 -12068053.454 21259318.128 10 0 60960 3600.00000 0 9752316.445 -12716182.311 19849670.365 10 0 60960 4500.00000 0 11961658.346 -13478020.395 18054648.745 10 0 60960 5400.00000 0 13885276.965 -14307383.622 15908996.841 10 0 60960 6300.00000 0 15488531.568 -15151792.245 13454289.297 10 0 60960 7200.00000 0 16748775.981 -15954764.502 10738133.150 10 0 60960 8100.00000 0 17656073.641 -16658299.154 7813249.210 10 0 60960 9000.00000 0 18213388.906 -17205442.297 4736450.751 10 0 60960 9900.00000 0 18436246.622 -17542829.733 1567539.132 10 0 60960 10800.00000 0 18351874.436 -17623096.683 -1631862.065 10 0 60960 11700.00000 0 17997864.353 -17407052.038 -4799511.230 10 0 60960 12600.00000 0 17420410.403 -16865523.756 -7873767.060 10 0 60960 13500.00000 0 16672197.624 -15980796.018 -10794796.364 10 0 60960 14400.00000 0 15810032.434 -14747576.093 -13505746.857 10 0 60960 15300.00000 0 14892315.404 -13173448.572 -15953861.114 10 0 60960 16200.00000 0 13976464.191 -11278796.680 -18091509.249 10 0 60960 17100.00000 0 13116396.321 -9096192.921 -19877119.652 10 0 60960 18000.00000 0 12360178.770 -6669283.802 -21275989.394 10 0 60960 18900.00000 0 11747943.936 -4051214.814 -22260958.551 10 0 60960 19800.00000 0 11310160.009 -1302661.036 -22812935.581 10 0 60960 20700.00000 0 11066328.483 1510454.700 -22921263.949 10 0 60960 21600.00000 0 11024163.276 4319461.314 -22583923.430 10 0 60960 22500.00000 0 11179285.441 7055552.920 -21807562.740 10 0 60960 23400.00000 0 11515445.601 9652407.912 -20607363.392 10 0 60960 24300.00000 0 12005264.000 12048705.369 -19006737.876 10 0 60960 25200.00000 0 12611456.260 14190434.899 -17036868.392 10 0 60960 26100.00000 0 13288492.551 16032904.747 -14736095.363 10 0 60960 27000.00000 0 13984619.662 17542365.713 -12149167.805 10 0 60960 27900.00000 0 14644160.326 18697184.512 -9326370.254 10 0 60960 28800.00000 0 15209992.421 19488519.044 -6322543.369 10 0 60960 29700.00000 0 15626103.287 19920468.910 -3196017.366 10 0 60960 30600.00000 0 15840111.200 20009696.419 -7479.133 10 0 60960 31500.00000 0 15805647.535 19784535.496 3181204.834 10 0 60960 32400.00000 0 15484499.071 19283627.201 6308186.707 10 0 60960 33300.00000 0 14848420.054 18554140.326 9312833.614 10 0 60960 34200.00000 0 13880537.487 17649652.669 12136898.776 10 0 60960 35100.00000 0 12576290.283 16627782.600 14725645.074 10 0 60960 36000.00000 0 10943862.324 15547670.636 17028899.711 10 0 60960 36900.00000 0 9004090.594 14467416.780 19002020.075 10 0 60960 37800.00000 0 6789851.304 13441580.895 20606752.789 10 0 60960 38700.00000 0 4344948.462 12518850.514 21811970.083 10 0 60960 39600.00000 0 1722549.870 11739973.344 22594269.859 10 0 60960 40500.00000 0 -1016765.891 11136040.576 22938428.443 10 0 60960 41400.00000 0 -3807271.989 10727192.526 22837697.575 10 0 60960 42300.00000 0 -6580573.006 10521800.608 22293939.939 10 0 60960 43200.00000 0 -9268200.431 10516159.928 21317600.357 10 0 60960 44100.00000 0 -11804217.623 10694705.641 19927512.598 10 0 60960 45000.00000 0 -14127727.224 11030744.455 18150544.708 10 0 60960 45900.00000 0 -16185177.656 11487671.179 16021088.679 10 0 60960 46800.00000 0 -17932373.283 12020619.761 13580403.225 10 0 60960 47700.00000 0 -19336104.697 12578479.931 10875821.372 10 0 60960 48600.00000 0 -20375331.055 13106194.734 7959837.334 10 0 60960 49500.00000 0 -21041865.005 13547242.137 4889089.783 10 0 60960 50400.00000 0 -21340531.284 13846195.572 1723261.037 10 0 60960 51300.00000 0 -21288792.267 13951254.517 -1476086.342 10 0 60960 52200.00000 0 -20915856.272 13816637.064 -4646712.455 10 0 60960 53100.00000 0 -20261306.400 13404731.927 -7726918.330 10 0 60960 54000.00000 0 -19373308.302 12687917.457 -10656754.833 10 0 60960 54900.00000 0 -18306473.116 11649969.199 -13379197.778 10 0 60960 55800.00000 0 -17119466.588 10286995.022 -15841265.305 10 0 60960 56700.00000 0 -15872466.132 8607857.036 -17995055.017 10 0 60960 57600.00000 0 -14624573.828 6634061.159 -19798680.159 10 0 60960 58500.00000 0 -13431295.136 4399118.033 -21217086.268 10 0 60960 59400.00000 0 -12342189.939 1947401.213 -22222732.459 10 0 60960 60300.00000 0 -11398794.929 -667450.198 -22796124.312 10 0 60960 61200.00000 0 -10632904.563 -3384518.220 -22926188.395 10 0 60960 62100.00000 0 -10065282.390 -6137899.473 -22610481.723 10 0 60960 63000.00000 0 -9704856.131 -8859210.299 -21855232.602 10 0 60960 63900.00000 0 -9548429.439 -11480199.595 -20675212.636 10 0 60960 64800.00000 0 -9580921.324 -13935361.126 -19093442.835 10 0 60960 65700.00000 0 -9776122.087 -16164437.224 -17140739.903 10 0 60960 66600.00000 0 -10097932.851 -18114710.371 -14855111.802 10 0 60960 67500.00000 0 -10502035.490 -19742988.140 -12281014.526 10 0 60960 68400.00000 0 -10937921.727 -21017199.797 -9468484.676 10 0 60960 69300.00000 0 -11351195.135 -21917539.078 -6472164.826 10 0 60960 70200.00000 0 -11686048.349 -22437106.713 -3350240.754 10 0 60960 71100.00000 0 -11887810.532 -22582027.129 -163311.283 10 0 60960 72000.00000 0 -11905457.254 -22371035.783 3026787.126 10 0 60960 72900.00000 0 -11693976.644 -21834555.642 6158178.163 10 0 60960 73800.00000 0 -11216491.794 -21013302.674 9170142.580 10 0 60960 74700.00000 0 -10446049.745 -19956479.702 12004291.063 10 0 60960 75600.00000 0 -9367001.419 -18719635.042 14605690.613 10 0 60960 76500.00000 0 -7975914.021 -17362276.038 16923923.029 10 0 60960 77400.00000 0 -6281976.968 -15945337.603 18914055.509 10 0 60960 78300.00000 0 -4306883.447 -14528611.563 20537505.301 10 0 60960 79200.00000 0 -2084191.395 -13168243.981 21762782.385 10 0 60960 80100.00000 0 341810.783 -11914404.564 22566096.477 10 0 60960 81000.00000 0 2917688.080 -10809224.956 22931817.200 10 0 60960 81900.00000 0 5582828.141 -9885091.454 22852778.846 10 0 60960 82800.00000 0 8271715.787 -9163363.020 22330423.891 10 0 60960 83700.00000 0 10916419.974 -8653567.808 21374782.245 10 0 60960 84600.00000 0 13449191.483 -8353111.705 20004286.031 10 0 60960 85500.00000 0 15805064.600 -8247511.131 18245422.677 99